BEL5FJ EBBR-LIRQ

Flight info

Callsign BEL5FJ
Flight time N/A
Altitude 37000
Route PITES DCT KRH DCT BATUB DCT TIRUL M738 NATAG DCT LORLO DCT ADOSA DCT LUMAV/N0404F230 Q58 BIKTU
Aircraft A319/M-SDE3FGHIRWY/LB1

Departure

Time N/A
Airport Brussels Airport (EBBR)

Arrival

Time 2026-05-08 15:00
Airport Florence Airport, Peretola (LIRQ)
Time Latitude Longitude Altitude Speed Heading
2026-05-08 14:54 43.67288 10.99332 3926 ft 185 kts 55°
2026-05-08 14:55 43.68135 11.00697 3726 ft 184 kts 49°
2026-05-08 14:55 43.68982 11.01994 3499 ft 184 kts 49°
2026-05-08 14:55 43.69842 11.03315 3265 ft 181 kts 49°
2026-05-08 14:55 43.70669 11.04584 3029 ft 178 kts 49°
2026-05-08 14:56 43.71476 11.05824 2787 ft 169 kts 50°
2026-05-08 14:56 43.72250 11.07014 2572 ft 164 kts 49°
2026-05-08 14:56 43.72994 11.08158 2360 ft 156 kts 49°
2026-05-08 14:56 43.73713 11.09264 2149 ft 154 kts 50°
2026-05-08 14:57 43.74429 11.10365 1945 ft 153 kts 49°
2026-05-08 14:57 43.75122 11.11435 1781 ft 141 kts 50°
2026-05-08 14:57 43.75756 11.12410 1550 ft 132 kts 49°
2026-05-08 14:57 43.76356 11.13332 1405 ft 126 kts 51°
2026-05-08 14:58 43.76940 11.14232 1204 ft 125 kts 49°
2026-05-08 14:58 43.77518 11.15122 1066 ft 123 kts 49°
2026-05-08 14:58 43.78099 11.16020 895 ft 125 kts 49°
2026-05-08 14:58 43.78681 11.16920 738 ft 127 kts 47°
2026-05-08 14:59 43.79262 11.17816 562 ft 124 kts 50°
2026-05-08 14:59 43.80415 11.19596 212 ft 123 kts 48°
2026-05-08 14:59 43.80952 11.20428 127 ft 92 kts 49°
2026-05-08 15:00 43.81192 11.20798 128 ft 26 kts 48°
2026-05-08 15:00 43.81247 11.20884 133 ft 15 kts 52°
2026-05-08 15:00 43.81264 11.21012 135 ft 13 kts 94°
2026-05-08 15:00 43.81259 11.21128 139 ft 11 kts 92°
2026-05-08 15:01 43.81263 11.21215 143 ft 7 kts 69°
2026-05-08 15:01 43.81291 11.21268 144 ft 7 kts 49°
2026-05-08 15:01 43.81345 11.21352 146 ft 16 kts 48°
2026-05-08 15:01 43.81457 11.21359 139 ft 20 kts 341°
2026-05-08 15:02 43.81483 11.21250 132 ft 16 kts 232°
2026-05-08 15:02 43.81390 11.21103 133 ft 27 kts 228°
2026-05-08 15:02 43.81227 11.20852 132 ft 43 kts 228°
2026-05-08 15:02 43.81008 11.20514 125 ft 48 kts 228°
2026-05-08 15:03 43.80780 11.20164 133 ft 44 kts 228°
2026-05-08 15:03 43.80672 11.20033 132 ft 15 kts 196°
2026-05-08 15:03 43.80562 11.19995 133 ft 16 kts 193°
2026-05-08 15:03 43.80458 11.19960 132 ft 10 kts 194°
2026-05-08 15:04 43.80391 11.19930 132 ft 9 kts 179°
2026-05-08 15:04 43.80352 11.19987 125 ft 6 kts 110°
2026-05-08 15:04 43.80310 11.20024 127 ft 5 kts 160°
2026-05-08 15:04 43.80297 11.20032 122 ft 1 kts 158°
2026-05-08 15:05 43.80295 11.20032 123 ft 0 kts 158°